Weather in Kızılkıya

Kyrgyzstan     40°15′30″N   72°07′20″E
temp.,
°C
wind,
m/s
gust,
m/s
humid.,
%
clouds,
%
prec.,
mm/h
press.,
hPa
HPBL,
m
12 august, fri
fri1200:00+23ene442725 0.0 100946
03:00+22e44310 0.0 100949
06:00+21ese33330 0.0 101020
09:00+26ne33250 0.0 1010723
12:00+29nnw32200 0.0 10081800
15:00+33nw42170 0.0 10052500
18:00+32wnw43170 0.0 10052161
21:00+25wsw22251 0.0 100611
13 august, sat
sat1300:00+24ese33263 0.0 100613
03:00+23se33270 0.0 100722
06:00+22se33260 0.0 100719
09:00+28nw22190 0.0 1008792
12:00+31nnw32160 0.0 10061558
15:00+34nw32140 0.0 10042275
18:00+34wnw32140 0.0 10032162
21:00+27sw12230 0.0 100411
14 august, sun
sun1400:00+25ese11250 0.0 100411
03:00+25se32240 0.0 100411
06:00+23sse22260 0.0 100411
09:00+30n11180 0.0 1005476
12:00+33nnw32140 0.0 10031821
15:00+36wnw42130 0.0 10012355
18:00+36w44130 0.0 10012096
21:00+28sw22200 0.0 100211
15 august, mon
mon1500:00+27se33200 0.0 100215
03:00+26se33220 0.0 100219
06:00+25se33230 0.0 100315
09:00+31nw22160 0.0 1003587
12:00+34wnw43130 0.0 10021636
15:00+37wnw55112 0.0 10002329
18:00+37wnw56100 0.0 10002670
21:00+29ssw33170 0.0 100122
16 august, tue
tue1600:00+28s32190 0.0 100112
03:00+27s33193 0.0 100225
06:00+26sse33210 0.0 100314
09:00+32w361562 0.0 10041315
12:00+35wnw87123 0.0 10032859
15:00+37wnw87116 0.0 10013506
18:00+35w1091399 0.0 10012181
21:00+30wsw51117100 0.0 1004434